Lexington Weather

Lexington, Massachusetts, USA

34°F
4/16/2021 10:55am 
  • Lexington Conditions: Snow, Fog, Overcast
  • Temperature: 34.0°F / 1.1°CWarmer 0.2°F than last hour.
  • Dew Point: 32.7°FIncreased 0.2°Fsince last hour.
  • Relative Humidity: 95
  • Wind: Wind from N N 2 mph, 10-min avg: 2 mph, gust: 4 mph
  • Barometer: 29.47 inFalling 0.03  inHg/hr Falling Slowly
  • Visibility: ½ mile
  • Snow Today: 1.3 in
  •   

Regional Weather Roundup
for Boston / Norton, MA

        
000
ASUS41 KBOX 102004
RWRBOX

REGIONAL WEATHER ROUNDUP
NATIONAL WEATHER SERVICE BOSTON/NORTON MA
400 PM EDT SAT APR 10 2021

NOTE:  "FAIR" INDICATES FEW OR NO CLOUDS BELOW 12,000 FEET WITH NO 
SIGNIFICANT WEATHER AND/OR OBSTRUCTIONS TO VISIBILITY.

MAZALL-102100-
EASTERN MASSACHUSETTS
  
CITY           SKY/WX    TMP DP  RH WIND       PRES   REMARKS
BOSTON         PTSUNNY   69  51  52 E7        29.81F                  
BEVERLY        NOT AVBL                                               
LAWRENCE       MOSUNNY   76  51  41 W7        29.81F                  
BEDFORD        PTSUNNY   76  50  40 W9        29.80F                  
BLUE HILL        N/A     74  51  44 SW15G22   29.82F                  
NORWOOD        MOSUNNY   77  51  40 W14G23    29.81F                  
MARSHFIELD     SUNNY     70  54  56 S13G21    29.83F                  
PLYMOUTH       SUNNY     66  50  56 S8G20     29.85F                  
TAUNTON        MOSUNNY   69  51  52 SW15G24   29.86F                  
NEW BEDFORD    SUNNY     63  50  62 SW16      29.88F                  
$$

MAZALL-102100-
CAPE COD AND THE ISLANDS
  
CITY           SKY/WX    TMP DP  RH WIND       PRES   REMARKS
FALMOUTH       NOT AVBL                                               
HYANNIS        CLOUDY    56  48  74 SW17G25   29.88F                  
CHATHAM        MOSUNNY   53  47  79 SW13G25   29.91F                  
PROVINCETOWN   SUNNY     57  49  74 SW21G28   29.86F                  
NANTUCKET      CLOUDY    50  46  86 SW13      29.92F                  
MARTHAS VNYRD  CLOUDY    54  49  83 SW14G24   29.91F                  
$$
 
MAZALL-102100-
CENTRAL AND WESTERN MASSACHUSETTS
  
CITY           SKY/WX    TMP DP  RH WIND       PRES   REMARKS
WORCESTER      MOSUNNY   72  50  45 W14       29.84F                  
FITCHBURG      SUNNY     77  49  37 W7        29.81F                  
ORANGE         PTSUNNY   76  51  41 S16G22    29.82F                  
SPRINGFIELD    MOSUNNY   76  51  41 S14       29.80F                  
WESTFIELD      MOSUNNY   77  51  40 SW10G20   29.80F                  
NORTH ADAMS    MOSUNNY   76  46  34 SW12      29.81F                  
PITTSFIELD     MOSUNNY   72  48  42 VRB7      29.83F                  
$$
 
RIZALL-102100-
RHODE ISLAND
  
CITY           SKY/WX    TMP DP  RH WIND       PRES   REMARKS
PROVIDENCE     NOT AVBL                                               
NEWPORT        SUNNY     56  49  77 SW13G24   29.90F                  
BLOCK ISLAND   PTSUNNY   54  49  83 SW17      29.93F                  
SMITHFIELD     PTSUNNY   72  54  53 SW9G17    29.85F                  
WESTERLY       SUNNY     57  49  74 SW13G20   29.92F                  
$$
 
CTZALL-102100-
CONNECTICUT
  
CITY           SKY/WX    TMP DP  RH WIND       PRES   REMARKS
BRADLEY INTL   MOSUNNY   75  51  43 S14G20    29.83F                  
HARTFORD       MOSUNNY   72  52  49 SW12G21   29.85F                  
BRIDGEPORT     CLOUDY    62  51  67 S7        29.90F                  
DANBURY        CLOUDY    69  53  56 SW14G24   29.90F                  
GROTON         MOSUNNY   55  49  80 S6        29.91F                  
NEW HAVEN      CLOUDY    61  52  72 S7        29.91F                  
CHESTER        PTSUNNY   64  54  68 SW8G18    29.90F                  
MERIDEN        PTSUNNY   68  52  56 S12G24    29.88F                  
WILLIMANTIC    MOSUNNY   71  52  50 SW10G20   29.86F                  
OXFORD         PTSUNNY   65  56  72 SW9G22    29.90F                  
$$

MEZ002-015-021-024-NHZ003-005-008-011-012-014-VTZ005-008-102100-
NORTHERN NEW ENGLAND
  
CITY           SKY/WX    TMP DP  RH WIND       PRES   REMARKS
PORTLAND ME    MOSUNNY   63  44  50 S15G22    29.81F                  
BANGOR ME      MOSUNNY   72  46  39 VRB7      29.79F                  
CONCORD NH     MOSUNNY   78  46  32 VRB3      29.79F                  
MANCHESTER NH  MOSUNNY   76  48  37 VRB6      29.78F                  
NASHUA NH      MOSUNNY   77  50  38 VRB6      29.80F                  
PORTSMOUTH NH  MOSUNNY   69  44  41 SE12      29.81F                  
JAFFREY NH     MOSUNNY   74  49  41 VRB5      29.82F                  
KEENE NH       MOSUNNY   76  49  38 SE8       29.80F                  
BURLINGTON VT  MOSUNNY   75  49  39 W6        29.80F                  
MT. WASHINGTON CLOUDY    48  36  61 W14         N/A                   
$$

NYZ052-076-102100-
EASTERN NEW YORK
  
CITY           SKY/WX    TMP DP  RH WIND       PRES   REMARKS
ALBANY         MOSUNNY   72  49  44 VRB6      29.82F                  
NEW YORK CITY  PTSUNNY   66  51  58 SW9       29.90F                  
$$
 
ANZALL-102100-
MARINE OBSERVATIONS
  
STATION/POSITION TIME  TEMP    WIND        PRES    VSBY  WAVE
                       AIR SEA DIR/SP/G                  HT/PER
                 (UTC) (F)     (DEG/KT/KT) (MB)    (MI)  (FT/S)
BOSTON BUOY      1940   52 47  160/ 12/ 16 1010.4F
BUZZARDS BAY     1900          220/ 19/ 21 1014.0F
NANTUCKET SOUND  1940      46                N/A
MASS BAY-STELLWA 1904   50     150/ 10/ 12 1009.8F  1 7/8  4/11
ISLE OF SHOALS   1900   60     160/ 17/ 17 1009.8F
S OF BLOCK IS    1926      47                N/A           3/11
$$

......................KEY.........................
  SKY/WX - SKY CONDITION/PRESENT WEATHER
  TMP    - TEMPERATURE IN FAHRENHEIT
  DWPT   - DEWPOINT IN FAHRENHEIT
  RH     - RELATIVE HUMIDITY IN PERCENT
  WIND   - DIRECTION AND SPEED IN MPH
  PRES   - MEAN SEA LEVEL PRESSURE IN INCHES OF HG
  WCI    - WIND CHILL INDEX
  VSB    - VISIBILITY IN MILES
  HX     - HEAT INDEX
  TC     - TEMPERATURE IN CELSIUS
  VRB    - VARIABLE WIND DIRECTION
  N/A    - NOT AVAILABLE
  
      

Other recent Regional Weather Roundups

Fri Apr 16, 10:05am

Fri Apr 16, 9:04am

Fri Apr 16, 8:04am

Fri Apr 16, 7:04am

Fri Apr 16, 6:04am

Fri Apr 16, 5:04am

Fri Apr 16, 4:04am

Fri Apr 16, 3:04am

Fri Apr 16, 2:04am

Fri Apr 16, 1:04am

Fri Apr 16, 12:04am

Thu Apr 15, 11:05pm

Thu Apr 15, 10:04pm

Thu Apr 15, 9:04pm

Thu Apr 15, 8:04pm

Thu Apr 15, 7:05pm

Thu Apr 15, 6:04pm

Thu Apr 15, 5:05pm

Thu Apr 15, 4:04pm

Thu Apr 15, 3:05pm

Thu Apr 15, 2:04pm

Thu Apr 15, 1:05pm

Thu Apr 15, 12:04pm

Thu Apr 15, 11:04am

Thu Apr 15, 10:05am

Thu Apr 15, 9:04am

Thu Apr 15, 8:04am

Thu Apr 15, 7:04am

Thu Apr 15, 6:04am

Thu Apr 15, 5:04am

Thu Apr 15, 4:04am

Thu Apr 15, 3:04am

Thu Apr 15, 2:04am

Thu Apr 15, 1:04am

Thu Apr 15, 12:04am

Wed Apr 14, 11:04pm

Wed Apr 14, 10:04pm

Wed Apr 14, 9:04pm

Wed Apr 14, 8:04pm

Wed Apr 14, 7:04pm

Wed Apr 14, 6:04pm

Wed Apr 14, 5:05pm

Wed Apr 14, 4:04pm

Wed Apr 14, 3:05pm

Wed Apr 14, 2:04pm

Wed Apr 14, 1:05pm

Wed Apr 14, 12:04pm

Wed Apr 14, 11:04am

Wed Apr 14, 10:04am

Wed Apr 14, 9:04am

Wed Apr 14, 8:04am

Wed Apr 14, 7:04am

Wed Apr 14, 6:04am

Wed Apr 14, 5:04am

Wed Apr 14, 4:04am

Wed Apr 14, 3:04am

Wed Apr 14, 2:04am

Wed Apr 14, 1:04am

Wed Apr 14, 12:04am

Tue Apr 13, 11:04pm

Tue Apr 13, 10:05pm

Tue Apr 13, 9:05pm

Tue Apr 13, 8:05pm

Tue Apr 13, 7:04pm

Tue Apr 13, 6:04pm

Tue Apr 13, 5:05pm

Tue Apr 13, 4:04pm

Tue Apr 13, 3:04pm

Tue Apr 13, 2:05pm

Tue Apr 13, 1:04pm

Tue Apr 13, 12:05pm

Tue Apr 13, 11:05am

Tue Apr 13, 10:04am

Tue Apr 13, 9:04am

Tue Apr 13, 8:04am

Tue Apr 13, 7:04am

Tue Apr 13, 6:04am

Tue Apr 13, 5:04am

Tue Apr 13, 4:04am

Tue Apr 13, 3:04am

Tue Apr 13, 2:04am

Tue Apr 13, 1:04am

Tue Apr 13, 12:05am

Mon Apr 12, 11:04pm

Mon Apr 12, 10:04pm

Mon Apr 12, 9:04pm

Mon Apr 12, 8:04pm

Mon Apr 12, 7:05pm

Mon Apr 12, 6:04pm

Mon Apr 12, 5:04pm

Mon Apr 12, 4:04pm

Mon Apr 12, 3:05pm

Mon Apr 12, 2:04pm

Mon Apr 12, 1:05pm

Mon Apr 12, 12:04pm

Mon Apr 12, 11:04am

Mon Apr 12, 10:04am

Mon Apr 12, 9:04am

Mon Apr 12, 8:04am

Mon Apr 12, 7:04am

Mon Apr 12, 6:04am

Mon Apr 12, 5:04am

Mon Apr 12, 4:04am

Mon Apr 12, 3:04am

Mon Apr 12, 2:04am

Mon Apr 12, 1:05am

Mon Apr 12, 12:04am

Sun Apr 11, 11:04pm

Sun Apr 11, 10:04pm

Sun Apr 11, 9:04pm

Sun Apr 11, 8:04pm

Sun Apr 11, 7:04pm

Sun Apr 11, 6:05pm

Sun Apr 11, 5:05pm

Sun Apr 11, 4:04pm

Sun Apr 11, 3:05pm

Sun Apr 11, 2:05pm

Sun Apr 11, 1:05pm

Sun Apr 11, 12:04pm

Sun Apr 11, 11:05am

Sun Apr 11, 10:05am

Sun Apr 11, 9:04am

Sun Apr 11, 8:04am

Sun Apr 11, 7:04am

Sun Apr 11, 6:04am

Sun Apr 11, 5:04am

Sun Apr 11, 4:04am

Sun Apr 11, 3:04am

Sun Apr 11, 2:04am

Sun Apr 11, 1:05am

Sun Apr 11, 12:04am

Sat Apr 10, 11:05pm

Sat Apr 10, 10:04pm

Sat Apr 10, 9:04pm

Sat Apr 10, 8:04pm

Sat Apr 10, 7:05pm

Sat Apr 10, 6:04pm

Sat Apr 10, 5:04pm

Sat Apr 10, 3:04pm

Sat Apr 10, 2:05pm

Sat Apr 10, 1:04pm

Sat Apr 10, 12:04pm

Sat Apr 10, 11:04am

Sat Apr 10, 10:04am

Sat Apr 10, 9:04am

Sat Apr 10, 8:04am

Sat Apr 10, 7:04am

Sat Apr 10, 6:04am

Sat Apr 10, 5:04am

Sat Apr 10, 4:04am

Sat Apr 10, 3:04am

Sat Apr 10, 2:04am

Sat Apr 10, 1:05am

Sat Apr 10, 12:04am

Fri Apr 9, 11:04pm

Fri Apr 9, 10:05pm

Fri Apr 9, 9:04pm

Fri Apr 9, 8:05pm

Fri Apr 9, 7:05pm

Fri Apr 9, 6:04pm

Fri Apr 9, 5:04pm

Fri Apr 9, 4:05pm

Fri Apr 9, 3:05pm

Fri Apr 9, 2:04pm

Fri Apr 9, 1:04pm

Fri Apr 9, 12:04pm

Fri Apr 9, 11:05am

Meta data:

ID: 49f605f4-40d9-491e-a850-c6b90e9ec6a1
Link: https://api.weather.gov/products/49f605f4-40d9-491e-a850-c6b90e9ec6a1